Regional Weather Roundup
Issued by NWS Cleveland, OH

Home | Current Version | Previous Version | Text Only | Print | Product List | Glossary On
Versions: 1 2 3 4 5 6 7 8 9 10 11 12 13 14 15 16 17 18 19 20 21 22 23 24 25 26 27 28 29 30 31 32 33 34 35 36 37 38 39 40 41 42 43 44 45 46 47 48 49 50
000
ASUS41 KCLE 191000
RWRCLE
OHIO REGIONAL WEATHER ROUNDUP
NATIONAL WEATHER SERVICE WILMINGTON, OH
600 AM EDT FRI SEP 19 2014

NOTE: "FAIR" INDICATES FEW OR NO CLOUDS BELOW 12,000 FEET WITH NO
SIGNIFICANT WEATHER AND/OR OBSTRUCTIONS TO VISIBILITY.

OHZ001>008-015>018-024>027-034-035-043-044-191100-
   NORTHWEST OHIO

CITY           SKY/WX    TMP DP  RH WIND       PRES   REMARKS
DEFIANCE       MOCLDY    50  47  89 NE5       30.22R FOG
FINDLAY        CLEAR     52  49  89 NE8       30.20R
TOLEDO EXPRESS CLEAR     47  45  93 CALM      30.22R
TOLEDO METCALF CLEAR     52  47  83 NE6       30.23R
LIMA           CLEAR     48  46  93 E7        30.19S FOG
$$

OHZ009>014-019>023-028>033-038-089-191100-
   NORTHEAST OHIO

CITY           SKY/WX    TMP DP  RH WIND       PRES   REMARKS
CLE-HOPKINS    PTCLDY    49  46  90 NW3       30.24R
CLE-LAKEFRONT  MOCLDY    53  48  83 S3        30.21R
CUY CO. ARPT   NOT AVBL
LORAIN-ELYRIA  CLEAR     48  44  86 CALM      30.22S FOG
ASHTABULA      PTCLDY    44  43  96 SE6       30.24S FOG
AKRON-CANTON   CLEAR     48  45  89 E7        30.21S FOG
WOOSTER        NOT AVBL
MANSFIELD      CLEAR     48  47  96 E3        30.21S
YOUNGSTOWN     PTCLDY    45  43  93 NE3       30.22R FOG
$$

OHZ042-051>053-060>062-070>072-077>081-191100-
  SOUTHWEST OHIO

CITY           SKY/WX    TMP DP  RH WIND       PRES   REMARKS
CINC-COVINGTON CLEAR     56  48  74 E12       30.15S
CINC-LUNKEN    CLEAR     45  44  97 CALM      30.17S FOG
HAMILTON       CLEAR     47  46  97 CALM      30.17F FOG
DAYTON         NOT AVBL
WRIGHT-PAT AFB CLEAR     50  48  93 NW2       30.18S
DAYTON GENERAL CLEAR     52  49  89 E7        30.16S
WILMINGTON     CLEAR     49  46  90 E7        30.17S
$$

OHZ036-037-039>041-045>050-054>059-063>069-073>076-082>088-191100-
  CENTRAL AND SOUTHEAST OHIO

CITY           SKY/WX    TMP DP  RH WIND       PRES   REMARKS
COLUMBUS       CLEAR     54  47  77 E5        30.18S
OSU AIRPORT    CLEAR     49  45  86 CALM      30.19S
BOLTON FIELD   NOT AVBL
RICKENBACK AFB NOT AVBL
NEWARK         CLEAR     48  46  93 CALM      30.20R
MARION         CLEAR     44  42  93 NE3       30.20S FOG
LANCASTER      CLEAR     43  42  97 CALM      30.20R FOG
ZANESVILLE     CLEAR     47  46  97 N3        30.20R
NEW PHILLY     CLEAR     43  42  97 CALM      30.22S
$$



USA.gov is the U.S. government's official web portal to all federal, state and local government web resources and services.